This is the latest recevied weather packets stored in our database for station/object KC9TVS-13. If no packets are shown the sender has not sent any weather packets the latest 10 day(s).
| Time | Temp. | Humidity | Pressure | Rain* | Wind** | Luminosity | Snow |
|---|---|---|---|---|---|---|---|
| 1788552207 | 26.11° C | 88% | 1013.5 hPa | 0.51 mm | - | 137 W/m² | - |
| 1788551907 | 26.11° C | 88% | 1013.5 hPa | 0.51 mm | - | 111 W/m² | - |
| 1788551609 | 26.11° C | 88% | 1013.7 hPa | 0.51 mm | - | 93 W/m² | - |
| 1788551324 | 26.67° C | 88% | 1013.8 hPa | 0.51 mm | - | 83 W/m² | - |
| 1788551009 | 26.67° C | 87% | 1013.9 hPa | 0.25 mm | - | 76 W/m² | - |
| 1788550708 | 26.67° C | 87% | 1014 hPa | 0.25 mm | - | 62 W/m² | - |
| 1788550408 | 26.11° C | 87% | 1014 hPa | 0.76 mm | - | 51 W/m² | - |
| 1788550108 | 26.11° C | 87% | 1014 hPa | 1.78 mm | - | 42 W/m² | - |
| 1788549807 | 26.67° C | 86% | 1014.1 hPa | 1.78 mm | - | 33 W/m² | - |
| 1788549506 | 26.67° C | 86% | 1014.1 hPa | 2.03 mm | - | 26 W/m² | - |
| 1788549206 | 26.67° C | 86% | 1014.2 hPa | 2.03 mm | - | 21 W/m² | - |
| 1788548905 | 26.67° C | 86% | 1014.2 hPa | 2.03 mm | - | 19 W/m² | - |
| 1788548602 | 26.67° C | 86% | 1014.4 hPa | 2.03 mm | - | 18 W/m² | - |
| 1788548303 | 26.67° C | 85% | 1014.4 hPa | 2.03 mm | - | 16 W/m² | - |
| 1788548002 | 26.67° C | 85% | 1014.2 hPa | 2.03 mm | - | 16 W/m² | - |
| 1788547702 | 26.67° C | 85% | 1014.2 hPa | 2.03 mm | - | 14 W/m² | - |
| 1788547402 | 27.22° C | 85% | 1014.2 hPa | 2.03 mm | - | 14 W/m² | - |
| 1788547102 | 27.22° C | 85% | 1014.3 hPa | 1.78 mm | - | 14 W/m² | - |
| 1788546803 | 27.22° C | 85% | 1014.2 hPa | 1.27 mm | - | 12 W/m² | - |
| 1788546502 | 27.22° C | 85% | 1014.3 hPa | 0.25 mm | - | 12 W/m² | - |
| 1788546203 | 27.78° C | 84% | 1014.6 hPa | 0.25 mm | - | 9 W/m² | - |
| 1788545903 | 27.78° C | 84% | 1014.9 hPa | 0 mm | - | 7 W/m² | - |
| 1788545602 | 27.78° C | 84% | 1015 hPa | 0 mm | - | 12 W/m² | - |
| 1788545303 | 28.33° C | 84% | 1014.9 hPa | 0.25 mm | - | 19 W/m² | - |
| 1788545003 | 28.33° C | 84% | 1014.7 hPa | 0.25 mm | - | 21 W/m² | - |
* Rain latest hour (hover to see other rain measurements)
** Current wind speed in m/s (hover to see current wind gust speed)